Theta_e
315 314 314 313 312 312 311 311 311 311 310 309 309 309 310 310 310 311 311 310 310 310 310 309 309 309 310 310 311 312 312 313 314 313 311 311 313 316 319 320 320 322 325 330 333 335 336 335 334 333 333 333 334 336 338 337 336 335 335 337 337 337 338 337 337 338 338 338 338 338 339 338 337 339 339 338 337 336 336 335 332 331 328 321 313
313 313 313 313 313 313 313 312 311 311 311 310 309 309 309 310 310 310 310 310 310 310 310 310 309 308 308 309 309 310 311 311 312 313 313 312 311 312 316 319 320 320 321 326 329 332 335 335 333 333 333 334 335 335 336 337 336 335 334 335 337 337 338 337 337 337 338 338 338 338 338 338 338 339 340 339 337 335 335 333 331 329 327 325 318
312 312 312 312 312 312 312 312 312 312 311 311 311 310 310 310 310 311 310 310 311 311 311 311 310 309 308 308 309 309 310 310 311 312 312 313 312 311 312 315 317 319 320 322 325 328 332 335 334 334 334 334 334 333 335 337 336 335 334 334 335 337 338 338 337 337 338 337 338 338 338 338 338 339 339 338 337 335 334 333 330 327 327 327 321
311 311 311 311 312 312 312 312 312 312 312 312 312 312 311 311 310 310 310 310 310 310 311 311 311 310 309 309 309 309 309 310 310 311 311 312 312 312 312 312 313 316 319 320 323 325 328 332 335 335 332 333 334 332 333 336 336 335 334 334 334 336 338 338 337 337 336 336 338 338 339 339 339 339 339 338 337 336 334 332 330 328 326 327 323
311 311 311 311 311 311 311 311 311 311 311 311 311 311 311 311 311 310 310 309 310 310 310 310 311 311 310 309 309 309 309 309 310 310 311 311 311 311 312 312 312 313 315 318 321 324 326 329 333 334 332 333 334 332 331 333 336 336 334 334 335 335 336 337 337 337 336 337 338 338 338 339 339 339 338 337 337 336 334 331 329 327 325 326 323
311 311 310 310 310 310 310 310 310 310 310 310 310 310 309 310 309 309 309 309 310 310 310 310 310 311 311 310 309 309 309 309 309 310 310 310 310 311 311 312 312 313 314 315 318 321 325 327 329 332 332 332 333 332 331 332 335 335 334 335 336 334 335 336 338 337 336 336 337 337 338 338 337 338 337 337 337 336 334 331 328 326 326 325 322
310 310 309 309 309 309 309 309 309 309 309 309 309 309 309 309 309 309 309 309 309 309 310 310 310 310 310 310 310 309 309 309 309 310 310 310 310 310 311 311 311 313 314 315 316 318 322 325 327 330 332 333 333 333 333 333 333 334 336 337 336 334 334 336 338 338 337 337 337 337 337 337 337 337 338 337 337 335 333 331 328 326 325 325 322
309 308 308 308 308 308 308 308 308 308 308 308 308 308 309 309 309 309 309 309 309 309 309 309 309 309 309 310 310 309 309 308 309 309 310 310 310 310 311 311 311 312 313 314 316 316 319 322 325 328 330 332 333 332 334 334 332 333 337 337 335 334 334 335 336 338 337 336 336 337 338 338 337 337 338 337 337 335 333 331 328 326 325 325 323
308 307 307 307 307 307 308 308 308 308 308 308 308 308 308 308 308 308 308 308 308 308 308 308 309 309 309 309 309 309 309 309 309 309 309 310 310 310 310 311 311 312 313 314 316 316 317 320 323 326 327 330 332 333 334 334 332 333 336 336 334 333 333 334 335 337 337 336 336 336 336 337 336 337 338 337 336 335 333 330 328 327 325 325 324
307 307 307 307 307 307 307 307 308 307 307 307 307 307 307 307 307 307 307 308 308 308 308 308 308 308 308 309 309 309 309 309 309 309 309 309 310 310 310 310 310 311 312 314 315 317 318 319 322 325 326 329 331 333 334 334 332 333 335 335 333 332 332 333 334 336 337 337 337 337 335 335 336 337 337 336 335 334 333 331 328 327 326 326 325
307 307 307 307 307 307 307 307 307 307 307 306 307 306 307 307 307 307 307 307 307 307 307 307 307 307 307 308 308 308 309 309 309 309 309 308 308 308 309 309 309 309 310 311 312 314 318 320 322 323 325 328 330 331 332 333 333 333 334 335 334 333 334 334 334 336 337 337 337 337 334 335 337 337 336 335 335 333 332 331 329 328 327 327 326
307 307 307 307 306 307 306 306 306 306 306 306 306 306 306 306 306 306 306 307 306 306 306 307 307 307 307 307 307 308 308 308 309 309 309 308 307 307 307 308 308 308 309 309 310 312 315 318 321 323 324 328 330 331 331 332 334 334 334 333 334 334 335 334 334 335 337 337 337 335 334 335 338 338 335 335 335 334 332 332 330 329 327 327 327
306 306 307 306 306 306 306 306 306 306 305 305 305 305 305 306 306 306 306 306 306 306 306 306 306 306 307 307 307 307 308 308 308 309 309 309 308 307 307 308 308 308 308 308 308 310 313 315 318 321 324 326 328 331 332 333 334 334 333 332 333 334 334 335 335 334 336 337 337 336 336 336 336 337 335 335 335 334 333 332 331 330 328 327 327
306 306 306 306 306 306 306 306 306 306 306 305 305 306 306 306 306 306 306 306 305 306 306 306 306 306 306 306 306 307 307 308 308 308 308 309 308 307 307 307 308 308 308 308 308 308 311 313 316 318 322 325 326 329 331 333 333 334 333 332 332 332 333 335 336 334 335 336 337 338 338 336 334 336 336 335 336 335 334 333 332 331 330 328 328
306 306 306 306 306 306 306 306 305 306 306 305 305 305 305 306 306 306 306 306 306 306 306 306 307 306 306 306 306 307 307 307 307 308 308 308 308 307 307 308 308 308 307 308 308 308 309 312 314 316 320 323 325 327 330 332 334 333 333 332 331 331 332 334 335 334 333 336 337 337 338 338 336 337 337 336 337 336 334 334 332 331 330 329 329
306 306 305 306 306 306 306 306 306 305 305 305 305 305 305 305 305 305 306 306 307 307 307 308 307 307 307 307 306 307 307 307 307 307 308 308 308 307 307 308 308 308 307 307 308 308 309 311 312 315 318 321 324 325 326 329 333 333 332 332 331 332 333 334 334 333 333 334 335 336 337 337 336 337 337 337 337 336 334 333 332 331 330 329 329
305 305 305 306 305 305 305 305 305 305 305 305 305 305 305 306 306 306 307 307 307 308 308 308 308 308 307 307 306 306 306 307 307 307 308 308 307 307 308 308 308 307 307 308 308 308 309 311 312 314 318 321 323 324 323 326 331 333 331 332 332 332 333 334 334 334 334 334 335 335 336 336 336 336 337 336 336 335 334 334 332 330 331 331 329
305 305 306 305 305 305 305 305 305 305 305 305 305 305 306 306 307 307 307 307 307 307 307 307 307 308 307 306 306 307 306 306 307 307 308 308 308 307 307 307 307 307 307 308 308 308 310 311 312 316 318 320 323 324 322 325 331 332 332 332 332 332 333 334 334 333 333 334 335 334 335 335 335 335 336 336 335 334 334 334 332 331 331 331 330
305 305 305 305 305 305 305 305 305 305 305 305 305 306 307 307 307 306 306 305 305 305 305 305 306 307 306 305 306 307 306 307 306 307 307 308 308 307 307 307 307 307 307 308 308 309 311 311 313 316 318 319 323 323 322 325 330 333 332 332 333 334 334 334 334 333 333 333 333 333 334 335 334 335 336 334 334 334 334 334 333 332 332 332 331
304 304 304 304 304 304 305 305 305 305 306 306 306 306 306 305 305 304 304 304 303 304 304 304 304 304 305 305 306 306 307 307 307 306 307 307 307 307 306 306 306 306 307 308 308 309 311 312 314 316 317 318 321 322 323 326 329 331 332 333 334 334 333 333 334 333 333 333 332 332 334 335 334 335 335 334 333 333 334 334 333 333 332 332 332
303 303 304 304 304 304 305 305 306 305 306 306 305 305 304 304 304 304 303 304 304 304 304 304 304 304 304 304 305 305 306 306 306 306 306 306 306 306 306 306 306 307 307 308 308 309 310 312 315 316 317 319 318 317 320 325 328 330 332 333 333 333 333 333 333 333 333 333 333 333 333 334 336 335 334 333 333 333 333 333 333 333 332 331 332
302 303 303 303 304 304 304 305 305 305 305 305 305 304 304 304 303 303 303 303 303 303 303 303 303 303 303 303 304 304 305 305 306 306 306 306 306 305 306 306 307 307 308 308 308 309 310 312 316 317 318 320 316 311 315 321 325 329 332 332 332 333 333 334 333 333 333 333 333 333 333 334 336 335 333 333 333 334 333 333 333 333 332 331 331
301 302 302 303 303 303 304 305 305 305 305 305 304 304 304 303 302 302 301 301 300 300 300 300 301 302 302 302 303 303 304 305 305 305 306 306 306 305 305 306 307 308 309 309 308 309 310 313 316 317 319 321 316 310 311 316 322 327 331 332 333 332 332 334 333 333 333 333 333 333 333 333 333 333 333 334 333 333 334 333 333 333 332 332 333
300 301 301 302 302 303 304 305 305 305 305 304 305 305 304 302 301 301 300 300 299 300 300 301 301 302 302 302 302 302 303 304 305 305 305 305 306 305 305 306 306 307 309 309 309 310 312 315 316 317 320 321 316 311 312 316 321 327 331 332 333 332 333 334 334 333 333 333 332 333 333 333 333 333 334 334 333 333 333 333 333 333 333 334 333
300 300 301 301 302 302 304 305 305 305 305 305 306 306 305 303 302 301 300 300 300 301 301 301 301 301 301 301 300 300 301 303 305 306 306 305 306 305 305 306 306 306 308 310 310 311 313 316 317 318 321 321 318 315 315 318 322 327 330 331 332 332 333 334 334 334 333 332 332 333 333 334 335 335 334 334 333 334 334 334 334 335 334 334 333
300 300 301 302 302 303 304 305 306 305 305 306 306 306 305 304 303 302 301 301 301 301 301 301 301 301 301 300 299 299 300 301 304 306 306 306 305 305 305 306 306 306 306 308 311 313 315 317 318 319 320 320 320 320 320 321 324 328 330 330 331 332 333 334 334 333 333 332 332 333 333 334 335 334 333 333 333 334 334 335 334 334 333 334 333
300 301 301 302 302 303 304 306 306 306 306 306 306 305 305 304 304 303 303 302 302 302 301 301 301 301 300 299 299 299 300 301 303 306 307 307 306 306 305 305 305 305 305 307 310 313 315 317 319 320 321 321 322 323 323 324 326 328 328 329 331 333 334 334 333 333 333 332 333 333 333 333 334 333 332 333 333 333 333 333 333 333 332 333 333
300 301 301 302 303 304 305 306 306 306 307 307 306 306 305 305 304 304 303 303 302 302 301 301 300 300 300 299 299 300 301 303 304 306 308 308 307 307 306 306 306 306 306 307 310 313 315 317 319 320 321 323 324 324 324 324 325 325 326 328 331 332 333 333 333 333 333 332 333 333 332 333 333 332 332 333 333 333 333 332 332 331 331 331 331
300 301 301 302 303 304 305 305 306 306 307 306 306 306 306 304 304 304 303 302 301 301 300 300 300 300 299 299 299 301 303 304 305 307 308 309 309 309 308 308 308 308 308 309 310 312 314 316 318 319 320 322 322 322 323 323 322 322 325 329 331 332 333 333 333 333 332 332 332 332 332 333 333 332 332 332 332 332 332 331 331 330 329 329 329
300 301 302 303 304 303 303 304 306 306 306 305 305 305 305 304 304 304 302 301 300 300 299 299 299 299 298 297 300 303 304 305 306 307 308 310 310 310 310 309 309 310 310 310 311 313 315 316 317 318 319 320 321 322 322 322 321 322 326 330 331 332 332 332 332 333 333 333 332 332 332 332 332 331 332 331 332 331 331 330 330 329 328 329 329
300 301 302 303 303 302 302 303 305 305 305 304 304 304 304 305 304 302 301 301 300 299 299 299 299 298 297 298 302 303 304 306 308 308 308 310 311 311 312 311 311 312 312 311 312 314 316 317 318 318 318 320 322 323 323 322 322 325 329 331 331 331 331 331 332 333 332 332 332 331 332 332 332 332 332 331 330 330 330 330 330 329 329 330 330
300 301 301 302 302 301 302 303 304 304 304 304 303 303 304 304 302 301 300 300 299 298 298 298 298 297 297 300 304 305 305 308 309 308 309 311 311 312 312 312 312 313 313 313 313 315 317 318 318 318 319 321 323 323 323 323 325 327 330 331 331 330 330 331 332 332 331 331 330 330 331 331 331 332 331 330 329 329 329 330 330 329 330 330 330
300 300 301 302 302 301 302 303 303 303 303 302 302 302 302 302 301 299 299 299 298 298 298 298 298 297 296 299 304 307 307 309 310 309 310 311 312 312 313 313 313 313 313 313 315 316 317 318 319 320 321 323 324 325 324 325 327 328 330 330 330 330 331 332 331 331 330 330 330 330 331 331 331 331 330 329 329 329 329 329 330 329 330 330 330
300 300 301 301 301 301 301 302 302 302 302 301 301 301 300 300 299 298 297 297 297 296 297 297 297 297 296 297 300 305 307 309 311 311 311 311 311 312 313 312 313 313 314 314 315 316 316 318 320 322 323 323 325 325 326 327 328 329 330 330 331 331 331 331 331 330 329 330 330 330 330 330 330 329 329 328 329 329 329 329 330 330 330 331 329
299 300 301 301 300 300 300 301 301 301 300 300 300 300 299 298 298 297 296 296 295 295 296 296 296 297 297 296 296 300 303 306 308 310 311 311 311 312 312 312 312 312 313 314 316 317 318 320 322 323 324 324 325 326 327 328 328 329 329 330 330 330 329 329 329 329 329 329 329 329 329 329 329 328 328 329 329 329 329 330 330 330 330 331 331
299 300 301 300 299 299 299 300 301 300 299 298 299 299 298 298 297 297 296 295 295 295 295 295 294 296 297 296 295 296 298 300 302 304 307 309 310 310 309 308 308 308 308 310 313 316 317 319 321 322 323 324 325 325 326 327 327 328 328 328 328 328 328 328 328 329 329 330 330 329 329 328 328 328 328 329 330 330 330 330 331 330 330 331 331
298 300 300 299 298 298 298 299 299 298 298 298 298 298 297 297 297 296 295 294 294 294 294 293 293 294 295 296 295 295 295 295 296 297 299 302 304 304 303 302 302 302 302 303 306 309 311 314 316 318 320 321 322 323 324 324 324 325 326 326 326 326 326 327 327 328 328 328 328 328 328 329 328 328 329 329 329 329 330 331 331 329 329 330 330
298 299 298 297 297 298 298 298 298 298 298 298 297 297 296 297 297 296 295 294 294 294 293 292 292 292 292 293 295 295 294 293 294 293 294 295 296 297 298 298 297 297 298 298 300 303 305 307 310 312 314 316 318 319 320 320 320 321 322 323 323 324 325 326 326 326 326 326 327 327 328 328 328 328 329 329 329 328 329 330 330 329 329 330 330
298 298 297 296 296 298 298 297 298 298 297 297 297 296 296 296 296 296 296 295 294 293 292 292 291 291 290 291 293 294 293 292 291 291 291 291 292 293 294 294 294 294 295 295 296 298 300 302 304 306 308 309 312 313 315 315 316 317 318 318 318 319 321 321 322 322 322 323 324 325 326 326 327 327 328 328 328 328 328 329 330 329 329 330 331
296 297 297 296 296 297 297 296 297 297 297 296 296 296 296 295 295 295 295 295 294 294 293 292 291 290 290 290 291 292 291 290 290 290 290 290 290 291 291 291 292 292 293 293 294 295 296 298 299 301 302 304 306 308 309 310 311 312 312 313 313 313 314 315 315 316 316 317 318 320 321 322 323 323 324 325 326 326 326 327 327 327 328 328 329
295 296 297 297 297 296 296 295 295 296 296 296 296 295 295 295 295 294 294 294 294 294 293 292 291 290 290 290 290 290 290 289 289 289 289 289 289 289 290 290 291 291 291 292 293 293 294 295 296 297 298 299 301 302 304 305 306 307 307 307 307 307 308 309 310 311 312 313 314 315 316 318 319 319 319 319 321 322 322 322 322 323 324 325 326
294 295 296 297 296 295 295 294 294 294 294 294 294 294 294 295 294 294 293 293 293 293 293 292 292 291 290 290 290 290 289 289 289 289 289 289 289 289 289 289 290 290 291 291 292 292 293 293 293 295 296 296 297 298 300 301 302 303 303 303 304 304 304 304 306 307 308 309 310 310 311 312 314 315 315 316 317 317 317 317 317 317 319 320 322
294 294 295 295 295 294 294 294 294 293 293 293 293 293 293 294 294 294 293 293 292 292 292 292 291 291 290 290 290 290 289 289 289 289 289 289 289 289 289 289 290 290 291 291 292 292 293 293 293 293 294 294 295 296 297 297 299 300 301 301 301 302 302 302 303 304 305 305 306 307 308 308 309 310 311 312 313 313 313 313 313 314 316 317 317
293 294 294 294 294 294 294 294 293 293 293 294 293 293 293 293 293 293 293 292 291 291 291 291 290 290 290 290 290 290 289 289 289 289 289 289 289 289 289 290 290 291 291 291 292 292 293 293 293 293 293 294 295 295 296 297 298 299 300 301 300 301 301 301 301 302 303 303 304 305 306 307 308 308 309 310 310 310 310 310 310 312 313 314 313
293 293 294 294 293 293 293 293 293 293 293 294 294 293 292 292 292 292 291 291 291 291 291 290 290 290 290 290 290 289 289 289 289 289 289 289 289 289 290 290 290 290 290 291 292 292 292 292 293 293 293 294 295 295 295 296 297 298 299 299 300 300 300 300 300 301 302 302 303 303 304 305 305 306 306 307 307 307 307 307 307 308 309 309 308
292 293 293 293 293 292 292 292 293 293 293 293 292 292 291 291 291 290 290 291 291 291 291 291 291 291 291 291 290 290 290 290 290 289 289 289 289 289 289 289 290 290 290 290 291 292 293 293 293 293 293 294 295 296 296 296 296 297 297 297 298 298 299 299 299 300 301 301 301 302 302 303 303 303 303 304 304 305 305 304 304 304 304 304 303
291 291 292 292 292 292 292 292 292 292 292 291 290 290 290 290 290 290 290 290 291 291 291 291 292 292 292 292 292 291 290 290 290 289 289 289 289 289 289 289 290 290 290 291 291 292 293 293 293 294 294 295 296 296 297 297 297 297 296 296 296 297 298 299 299 299 300 300 300 301 301 301 301 301 301 301 301 301 301 301 301 301 301 301 301
291 290 291 291 291 291 291 291 292 292 292 291 290 290 290 290 290 290 290 291 292 292 292 292 292 292 292 292 292 291 290 290 289 289 289 289 289 289 289 289 290 290 290 291 292 292 293 293 293 294 295 296 296 297 297 297 298 298 297 297 297 297 298 298 299 299 299 300 300 300 300 300 300 300 300 299 299 299 299 299 299 299 299 300 300
290 290 290 290 290 291 291 291 291 292 292 292 291 290 290 290 290 290 291 291 292 292 292 292 292 292 292 292 291 291 290 289 289 288 288 288 288 289 289 289 290 290 290 291 291 292 292 293 293 294 295 296 296 297 297 297 298 298 298 298 298 298 298 299 299 299 299 299 299 299 300 300 299 299 299 299 299 299 299 299 298 299 299 300 300
290 289 290 290 290 290 290 290 290 290 291 291 291 291 290 290 291 291 291 291 291 291 292 292 291 291 291 291 290 290 289 289 288 288 288 288 288 288 288 289 289 289 290 290 290 291 292 293 293 294 294 295 295 296 297 297 297 297 298 298 299 299 299 299 299 299 299 299 299 299 299 299 299 299 299 299 299 299 299 299 299 299 299 299 300
291 290 290 290 290 290 290 290 290 289 289 290 290 290 290 290 290 290 291 291 290 290 290 289 289 289 289 289 288 288 288 288 288 287 287 287 287 287 288 288 288 288 289 289 289 290 291 292 292 292 293 294 294 294 295 295 296 296 297 298 299 299 299 299 299 299 299 299 299 299 299 299 299 299 298 298 298 298 298 298 298 299 299 299 299
Wind_Speed
19 20 22 23 25 26 26 27 27 28 29 29 29 29 29 29 29 27 27 26 26 26 26 27 26 25 24 22 20 20 19 18 18 18 18 19 20 21 21 22 23 23 23 22 21 21 23 25 25 27 30 31 27 23 21 22 24 24 24 23 22 21 19 18 13 6 9 13 14 16 18 19 17 17 17 16 18 19 17 18 20 19 18 18 19
17 19 20 22 23 25 27 28 28 29 31 31 32 32 32 31 30 29 29 29 28 28 28 29 29 29 28 26 24 23 21 20 20 19 19 19 20 20 21 22 23 23 23 23 22 21 21 24 25 27 29 30 28 24 22 23 25 25 25 24 22 22 21 19 17 11 8 12 14 15 17 18 17 18 18 18 20 20 19 20 19 17 17 17 19
18 19 20 21 23 24 26 28 29 30 31 31 32 33 32 32 31 30 30 29 29 29 29 29 30 30 30 29 27 25 24 22 21 20 20 20 20 20 21 22 22 23 23 23 22 22 22 23 26 27 27 28 29 29 25 22 25 26 26 25 22 21 21 20 19 15 10 12 15 15 17 18 17 18 19 18 20 20 19 20 19 17 16 15 17
20 22 23 24 24 25 26 27 28 29 30 30 31 31 31 31 30 31 31 31 30 30 30 30 31 31 31 31 30 28 26 24 23 22 21 21 20 20 21 22 23 23 23 23 22 22 22 22 23 25 26 25 28 32 27 22 25 29 29 27 25 22 21 21 21 18 14 14 15 15 17 17 17 18 19 18 19 20 19 19 19 18 17 14 14
22 23 24 25 26 26 27 27 28 29 30 31 32 33 32 31 31 31 32 33 33 33 32 32 32 32 32 32 31 30 28 26 25 24 23 21 21 21 20 21 22 23 24 24 23 22 23 24 22 23 26 26 28 32 31 25 24 28 29 28 28 26 23 22 22 20 18 15 15 16 17 17 17 19 20 20 20 20 18 19 20 19 18 15 12
22 23 24 25 25 26 27 28 28 30 31 32 33 34 34 34 34 34 34 36 36 36 34 34 33 33 33 33 33 32 31 29 27 26 25 23 22 21 21 20 21 22 23 24 24 23 24 25 23 22 25 28 31 30 29 28 27 28 29 27 26 26 25 23 22 22 20 17 16 18 18 18 18 19 21 22 21 21 21 20 20 20 19 16 13
21 22 23 24 25 26 28 29 29 30 31 32 32 32 33 33 33 34 34 35 36 36 36 36 36 36 35 34 34 34 32 31 29 27 25 24 23 22 21 21 21 21 22 23 24 24 24 25 24 23 23 28 33 30 26 29 31 31 30 27 25 26 25 22 23 23 22 20 18 19 20 19 19 19 21 23 22 21 23 22 21 21 21 17 14
21 23 23 24 25 27 28 28 28 29 29 30 30 30 31 31 32 33 33 34 35 35 35 35 37 37 37 36 35 35 34 33 31 29 27 25 23 22 22 21 21 22 22 22 24 24 25 25 25 25 24 27 33 33 29 31 33 31 32 31 29 27 25 22 22 24 24 23 20 18 19 19 20 20 21 23 22 22 24 24 23 23 22 18 15
23 24 24 25 26 26 27 27 27 28 28 29 30 30 31 31 31 32 33 33 34 35 35 35 36 37 37 37 36 36 36 35 33 31 28 25 23 22 21 21 21 22 22 22 23 24 25 26 26 26 27 28 31 33 32 35 37 32 29 33 33 29 26 24 24 24 24 24 22 19 19 18 20 21 23 24 24 25 26 24 23 23 22 18 15
24 24 25 26 26 26 27 27 28 28 29 30 30 31 31 31 31 32 33 33 34 34 34 35 35 36 36 36 37 37 37 37 35 33 32 29 25 22 21 21 21 21 22 23 23 22 24 25 26 26 29 31 32 33 33 35 39 35 27 31 35 31 27 25 25 26 24 24 23 19 17 18 22 23 24 25 26 27 27 24 23 23 22 18 16
24 24 25 26 26 27 28 28 28 29 29 30 31 31 31 31 32 32 32 33 34 34 33 34 35 35 35 36 36 36 37 37 36 35 34 34 31 26 23 22 22 23 23 24 24 23 22 23 25 26 28 31 32 35 35 36 40 39 32 31 35 35 33 30 27 25 24 24 23 18 16 18 22 24 24 25 26 27 27 25 24 24 22 18 15
23 24 25 26 27 27 28 28 29 29 30 30 31 31 31 32 33 33 33 34 35 35 34 34 34 34 35 36 36 37 36 36 36 35 34 36 35 30 26 24 23 23 24 24 25 25 24 23 23 25 27 29 29 31 34 38 40 40 38 37 38 39 39 38 32 27 25 24 23 22 21 19 20 23 26 27 27 27 27 26 25 24 22 18 15
24 25 26 26 27 28 28 29 29 30 31 31 32 32 32 33 34 33 34 34 35 35 35 34 35 35 36 36 37 37 37 37 37 37 35 35 36 33 28 25 25 24 25 25 25 25 26 25 24 24 26 28 28 27 29 33 37 40 41 41 41 41 40 41 38 32 28 25 24 25 26 23 22 25 29 29 28 28 27 26 25 24 21 19 15
25 26 27 27 28 28 28 30 31 31 32 32 33 33 34 34 33 32 32 34 34 35 36 35 36 36 36 37 37 37 37 37 37 38 37 35 35 34 30 26 26 26 26 27 27 27 28 28 26 26 26 28 28 26 25 28 32 37 40 40 41 42 40 40 39 35 30 26 25 25 25 26 27 27 28 29 29 30 29 27 26 24 22 20 15
26 27 28 28 28 29 30 31 32 32 32 33 34 34 34 34 33 32 32 33 33 35 35 35 34 35 35 36 37 37 38 37 36 38 39 38 37 36 32 28 27 27 28 28 29 28 29 30 29 29 29 30 29 27 26 26 29 34 39 40 42 44 43 42 42 38 32 27 25 24 24 26 25 23 27 30 28 28 28 26 26 24 21 20 16
27 27 27 28 28 29 30 31 32 32 33 34 34 34 35 35 34 34 33 33 34 34 35 34 33 34 34 35 36 38 39 38 37 38 40 41 40 37 33 29 28 28 29 29 30 30 30 31 32 31 31 32 30 28 27 27 29 32 34 37 41 43 42 43 45 42 36 30 28 25 23 24 24 23 28 29 26 26 25 22 24 25 21 20 19
26 26 27 28 28 29 29 30 31 32 33 34 34 35 35 36 35 35 34 34 34 34 34 34 34 33 34 35 36 39 40 39 38 38 40 42 41 37 32 30 29 29 30 30 31 31 31 33 33 32 32 32 31 29 28 28 30 30 30 33 38 39 38 38 43 44 38 33 30 24 21 24 25 26 30 31 29 30 28 22 24 28 23 18 18
25 26 27 27 27 28 29 29 30 32 33 34 35 35 35 36 35 34 32 31 32 33 34 35 35 34 35 38 39 39 41 41 38 38 40 43 43 39 34 32 31 30 30 30 31 31 32 34 36 34 32 32 31 30 29 30 32 33 33 33 33 34 34 34 37 41 39 34 30 24 21 25 27 27 31 33 34 35 32 28 30 31 25 19 18
25 26 27 27 28 28 28 29 31 33 34 34 35 34 34 35 34 33 33 33 35 37 36 36 37 37 38 41 43 42 42 43 41 40 41 43 46 43 37 34 33 32 31 30 31 31 31 34 37 37 36 34 30 29 29 31 34 36 35 33 29 30 34 35 36 41 40 35 31 25 21 25 28 28 31 35 38 38 33 30 32 31 26 22 21
27 27 28 28 28 28 29 30 32 33 33 34 33 32 33 35 35 36 37 37 37 38 38 37 39 41 40 41 42 41 41 42 43 43 42 43 45 45 40 37 35 32 31 30 30 31 31 32 34 37 40 40 34 30 29 31 35 36 34 30 28 29 33 35 37 41 40 35 32 27 24 26 27 27 31 36 38 38 35 31 31 30 27 23 22
28 28 28 28 28 29 28 29 31 32 32 33 33 32 33 36 38 37 36 35 35 37 37 36 37 39 39 39 41 41 41 42 43 43 42 42 44 45 43 41 37 33 31 31 30 30 30 31 31 32 39 43 40 36 34 32 34 37 35 33 32 33 35 36 36 38 37 35 33 29 25 25 25 26 32 37 38 39 38 32 29 30 29 24 22
27 27 28 28 28 28 28 29 31 32 31 32 33 34 35 36 36 33 30 29 30 31 31 31 31 33 35 37 40 42 44 46 46 43 42 41 43 45 45 43 40 34 31 31 31 30 30 30 29 29 34 38 38 38 38 35 34 37 38 37 37 37 37 38 37 36 34 34 33 30 27 25 25 27 32 35 36 39 37 32 29 30 30 25 22
27 27 27 27 27 27 28 30 31 30 30 32 33 34 33 32 30 28 25 24 25 25 27 29 27 28 30 33 37 41 43 47 49 47 44 43 43 46 47 46 43 37 32 31 30 30 30 29 28 28 31 34 34 35 38 38 37 39 41 40 40 39 38 37 37 36 34 31 31 29 28 27 28 29 31 31 34 36 35 32 30 28 26 24 21
26 26 26 26 27 27 28 30 29 28 30 33 33 30 28 25 26 26 24 24 25 25 27 27 25 25 26 28 33 37 39 43 47 49 49 48 45 45 46 48 47 42 35 31 30 30 29 28 28 28 30 32 33 34 37 38 38 41 45 45 42 40 37 34 35 35 32 29 30 28 27 28 29 29 29 30 33 34 32 30 29 25 22 24 22
25 25 25 25 27 28 28 29 28 27 31 32 29 26 25 23 23 25 25 26 27 26 26 26 25 24 25 26 30 36 37 38 41 44 49 51 49 46 46 47 50 48 40 33 30 30 29 28 27 27 28 29 30 33 35 37 39 42 47 47 42 38 36 34 34 34 30 29 30 29 27 28 27 25 25 26 28 29 27 26 26 24 20 20 19
24 25 25 26 28 27 28 29 29 29 32 32 28 27 28 26 24 25 26 27 28 27 26 27 26 24 23 24 29 33 34 35 36 37 41 47 48 48 48 48 50 51 47 40 33 30 29 27 25 26 27 28 29 32 35 37 39 42 47 48 42 37 36 34 33 32 29 29 30 30 29 28 24 23 25 25 25 27 28 27 27 26 21 18 17
24 24 25 27 28 26 26 28 30 30 31 31 30 29 29 28 26 26 27 28 28 28 27 27 26 22 20 21 25 29 30 32 34 34 36 39 42 45 47 47 46 47 46 42 37 32 30 27 24 25 27 27 29 33 35 37 39 43 46 45 40 36 37 37 36 32 30 30 30 30 31 29 25 25 28 26 23 25 30 31 29 28 25 21 18
22 23 25 27 26 24 25 27 29 30 30 29 29 28 27 27 27 29 30 30 30 30 29 29 31 28 23 21 22 22 25 29 33 34 35 37 38 39 41 42 41 41 41 39 36 33 29 25 24 24 24 26 29 31 32 34 39 43 44 41 37 37 38 38 36 33 31 30 29 29 30 29 28 29 30 27 23 25 30 31 29 28 26 24 20
22 23 25 24 22 22 24 25 26 28 29 28 28 28 28 28 29 31 35 38 39 38 37 38 42 41 34 28 21 15 18 25 32 37 38 38 38 37 37 38 38 37 38 38 35 30 27 25 24 23 22 24 26 26 29 33 36 38 40 39 37 36 37 36 33 31 31 30 28 29 30 30 30 30 29 26 24 24 25 26 26 26 25 23 20
21 22 22 21 21 22 23 23 24 27 28 28 29 31 33 32 30 29 35 42 45 45 45 47 49 47 40 32 23 18 20 25 32 38 39 39 39 37 36 38 39 37 38 39 33 28 26 24 23 22 22 22 23 25 30 32 29 29 35 37 35 35 36 35 32 31 32 31 30 29 30 31 31 29 27 26 25 24 24 24 25 26 25 23 20
19 20 20 21 23 23 22 22 24 25 26 27 28 30 32 33 32 32 36 41 44 47 50 51 49 46 41 26 14 24 25 25 32 39 39 39 40 38 36 38 39 36 37 37 32 26 23 21 20 21 22 23 24 27 31 30 27 27 32 34 32 33 35 32 30 31 32 32 31 31 30 30 31 28 27 27 26 24 24 24 24 26 25 23 22
19 19 19 21 24 23 21 21 23 24 25 26 28 29 28 28 29 34 40 43 43 46 49 49 46 48 49 31 8 23 23 23 34 41 39 38 39 36 33 36 37 34 34 35 30 25 22 19 18 20 22 23 25 28 29 28 28 29 31 31 30 31 33 31 30 33 34 32 32 32 30 27 28 28 28 28 27 26 25 25 25 26 25 23 23
19 18 18 20 22 22 20 20 23 24 25 26 28 28 26 22 20 26 36 44 48 49 50 48 46 51 57 49 27 18 18 24 34 37 35 36 36 31 28 31 33 33 33 31 25 22 21 19 18 21 23 23 23 26 27 26 27 28 30 32 31 30 32 32 32 32 33 32 32 32 30 27 26 27 28 29 28 27 27 26 25 25 24 22 22
17 17 18 19 20 20 18 18 21 24 24 25 27 26 25 22 20 21 26 32 38 42 46 50 50 52 58 58 48 35 26 26 30 32 32 33 31 27 25 26 28 30 30 26 20 18 19 19 20 22 24 23 24 26 25 24 26 29 30 32 31 30 30 31 30 30 31 31 30 30 30 28 27 28 28 27 26 25 26 25 24 23 22 20 22
16 15 16 17 18 18 17 16 19 22 22 23 24 24 24 23 23 22 22 23 25 28 35 44 47 49 54 57 57 52 44 34 29 27 28 28 26 23 21 19 17 18 18 17 16 18 19 20 20 22 24 25 25 25 25 26 27 29 29 28 29 30 29 28 27 28 30 30 29 29 30 29 29 30 30 27 24 24 23 22 23 25 23 21 21
14 14 14 16 17 17 16 16 17 19 21 22 23 23 22 22 22 22 23 26 27 26 31 40 45 49 54 56 55 57 57 52 44 35 29 28 27 24 19 16 15 14 11 7 9 13 15 17 20 23 25 26 25 25 27 27 25 26 27 28 29 30 30 28 27 27 29 30 29 29 31 30 30 31 30 26 24 25 23 22 23 25 24 21 20
13 12 14 16 18 17 16 17 17 19 20 21 22 23 22 22 22 22 22 27 29 28 34 43 47 46 49 50 47 49 55 58 57 52 46 40 37 32 26 24 25 25 22 16 12 14 17 19 23 26 28 29 30 30 30 27 26 27 29 29 29 30 31 30 30 28 27 28 29 30 31 30 30 30 28 25 24 24 23 22 22 21 19 19 21
12 11 12 16 17 16 16 17 18 18 19 19 21 23 22 21 22 21 21 26 28 28 34 42 42 37 39 43 42 45 55 60 57 53 50 46 40 33 29 30 33 33 28 24 21 20 23 25 27 30 31 32 34 35 33 31 32 33 34 33 32 33 34 32 31 29 27 26 27 29 28 26 26 28 28 26 25 23 21 20 20 18 17 18 19
11 10 11 15 16 14 15 17 17 17 17 18 19 21 21 22 23 22 20 22 25 26 30 36 34 31 36 44 46 49 54 52 44 41 43 44 41 35 32 34 37 36 33 31 29 28 30 31 32 33 33 34 35 36 35 35 35 35 36 36 34 32 32 30 28 28 28 27 27 28 27 24 24 25 26 25 24 23 21 20 20 20 18 16 15
12 10 11 15 15 14 14 15 15 15 17 17 18 19 19 20 22 23 20 20 23 25 27 31 31 32 37 42 43 47 48 43 38 39 40 39 39 38 38 38 38 37 36 34 31 31 34 37 37 37 35 34 34 35 35 36 37 36 37 37 34 31 30 29 29 30 30 29 28 28 27 26 26 26 24 22 23 24 23 20 19 18 16 15 15
12 11 11 12 13 13 13 14 14 15 15 15 16 17 17 17 19 21 20 20 22 23 24 28 32 35 39 41 43 46 45 40 41 44 43 38 37 38 40 40 40 37 35 33 32 32 36 39 41 41 38 34 32 33 35 38 39 39 38 37 36 34 32 31 31 30 30 30 30 30 29 28 30 31 28 26 27 28 26 22 19 17 16 16 17
12 11 11 11 12 13 13 13 14 15 15 15 15 16 16 16 18 20 21 22 23 23 23 26 30 34 38 41 45 46 43 39 39 41 41 39 39 39 41 44 44 40 36 35 35 36 38 39 40 42 40 34 30 31 35 37 39 40 39 37 37 35 34 32 30 30 30 31 31 31 30 30 31 32 32 31 31 31 28 25 21 18 15 14 14
11 10 10 10 11 12 12 13 13 14 15 15 15 16 17 17 17 19 20 22 23 22 22 25 28 31 35 39 42 42 40 38 37 37 37 39 40 39 40 43 44 42 39 38 39 39 40 40 40 40 39 36 34 35 37 38 39 41 41 39 37 35 34 31 29 29 28 28 29 30 30 29 29 28 27 26 26 25 24 24 21 17 14 13 14
11 10 9 10 11 12 12 12 13 14 14 15 15 16 17 17 16 17 18 20 22 22 22 23 26 28 29 33 36 35 33 33 34 35 35 36 37 38 39 40 42 42 41 40 39 40 40 41 40 39 38 38 39 40 40 40 40 40 40 38 37 35 33 29 27 27 26 26 26 27 27 26 25 24 22 22 21 20 20 20 18 15 13 13 13
11 11 11 11 11 13 13 13 13 14 14 15 15 16 17 17 17 18 18 19 21 22 21 22 23 24 25 27 29 29 29 30 33 34 34 33 33 34 37 39 40 40 39 39 40 41 42 41 41 40 39 40 41 41 41 40 39 38 36 35 34 32 30 27 25 24 25 25 25 25 25 24 23 22 21 21 21 20 18 17 16 15 14 13 13
11 11 12 12 12 13 14 14 14 15 15 15 15 15 16 16 17 17 18 19 20 20 21 21 22 23 24 25 25 26 27 28 30 32 33 33 33 34 35 36 38 38 38 39 40 42 42 42 42 42 42 44 44 43 41 39 37 35 32 30 28 27 27 27 25 24 25 26 25 26 27 26 25 23 23 23 22 20 19 17 17 16 15 15 14
13 12 13 13 12 13 14 14 14 15 15 15 16 17 17 16 15 16 17 20 21 21 21 22 23 24 24 24 24 24 25 25 26 29 31 32 32 33 34 35 36 37 38 39 41 42 42 41 41 42 43 44 45 45 42 40 38 35 33 30 27 25 25 26 25 25 26 27 26 25 25 25 22 21 21 22 21 21 19 18 17 16 16 15 14
14 14 14 14 14 14 14 14 14 14 14 15 16 16 16 16 16 17 18 20 21 21 21 22 22 22 23 23 22 22 22 23 23 25 28 30 31 32 33 34 34 35 37 39 40 40 41 41 41 42 43 43 43 43 42 40 38 37 34 32 30 28 27 27 27 27 27 28 28 28 28 27 25 23 23 22 22 21 20 18 17 17 16 15 14
15 15 15 15 15 15 15 15 14 14 14 14 15 16 16 17 18 18 18 19 20 20 20 20 20 20 21 21 20 21 22 22 22 23 25 27 28 30 32 33 34 35 36 37 37 38 39 40 40 41 42 41 41 40 39 38 37 36 34 33 32 31 31 31 31 30 30 30 30 30 31 30 28 26 25 23 22 20 20 18 17 17 17 16 14
16 17 17 16 16 15 15 14 14 14 14 14 15 16 16 17 18 18 18 18 18 18 18 18 18 18 19 19 19 20 21 21 21 22 23 24 26 29 31 33 34 35 36 36 36 37 38 39 39 39 39 39 38 37 37 36 34 33 31 30 30 30 31 32 31 31 31 31 31 31 29 28 26 24 23 22 21 20 19 18 17 17 17 16 15
19 18 18 17 17 16 16 16 15 15 15 16 16 15 15 16 16 17 18 18 17 17 17 17 17 17 17 17 19 20 21 21 21 21 22 23 25 27 29 30 32 33 34 34 35 35 36 36 36 37 36 36 35 34 33 32 30 29 28 28 28 28 29 30 31 31 30 30 30 30 28 26 24 23 23 23 23 22 21 19 18 17 17 16 15
Wind_Direction
265 266 266 265 263 261 259 259 258 259 261 262 264 266 268 270 271 273 274 274 275 274 273 272 272 272 271 269 267 265 262 259 255 253 253 254 255 258 260 261 260 260 261 259 254 249 242 237 240 242 242 241 235 228 225 220 219 228 234 228 217 214 214 218 227 207 172 186 186 176 174 172 176 183 177 173 177 175 166 163 164 159 155 163 172
269 269 269 267 267 265 264 263 262 262 262 262 263 264 265 266 267 269 270 271 273 273 272 270 269 269 268 267 267 266 264 262 259 254 252 252 252 255 257 259 259 259 260 260 257 254 247 240 240 242 241 242 239 235 229 220 217 223 232 234 225 215 212 214 222 218 183 181 184 175 172 173 176 181 177 170 174 175 165 159 161 159 156 159 168
272 272 272 271 270 269 268 267 266 265 264 264 263 264 265 266 266 267 268 269 270 270 270 268 267 265 264 263 264 263 263 262 260 256 252 251 251 252 254 256 258 258 258 259 258 256 252 245 240 238 237 239 239 237 232 220 215 217 224 231 232 223 212 211 219 219 189 178 186 180 175 179 180 178 176 170 171 175 168 162 163 164 163 160 168
276 276 275 274 273 272 271 270 270 269 267 266 265 265 266 267 267 267 268 269 269 268 268 267 265 263 261 260 259 259 259 259 259 257 253 251 251 251 252 253 255 257 257 257 258 257 256 250 241 234 234 237 237 235 234 225 216 216 218 222 228 228 216 209 215 219 205 189 190 187 179 179 181 177 173 169 169 174 172 166 167 172 170 164 170
278 278 278 277 277 275 275 274 273 272 270 270 269 269 269 269 268 267 268 268 268 268 267 265 263 261 259 258 256 255 256 256 256 256 254 252 251 251 252 252 252 255 257 257 257 256 257 255 246 235 233 235 234 232 232 230 220 216 217 217 221 225 220 212 211 214 214 202 189 188 185 180 181 178 174 171 170 173 172 166 171 177 169 161 171
282 282 282 282 281 280 280 279 278 277 276 275 275 274 274 273 272 272 271 271 270 269 267 265 263 260 258 257 255 254 254 254 254 254 253 253 253 253 253 253 253 253 254 256 257 255 255 256 251 243 236 234 233 229 227 226 221 216 217 216 214 218 219 214 208 208 213 208 191 186 186 183 182 180 178 175 171 172 171 168 174 179 171 164 174
286 286 285 285 284 284 285 284 283 282 281 280 280 279 279 278 277 277 275 274 273 271 269 266 264 263 260 258 256 254 253 253 252 250 250 251 253 255 256 255 255 254 253 253 255 255 254 254 253 248 239 233 232 231 226 224 223 220 216 212 209 212 215 213 207 205 208 208 198 187 186 188 185 181 180 177 173 172 169 169 176 180 178 176 172
287 287 287 287 287 287 288 288 287 286 285 285 284 283 282 281 281 279 277 275 273 272 270 269 267 265 263 260 258 256 254 252 250 249 247 247 250 253 257 258 258 258 256 253 252 254 255 254 252 249 242 236 236 235 229 223 225 223 213 210 211 210 211 213 210 206 204 207 206 189 178 187 189 182 177 175 176 177 173 175 180 181 183 183 172
288 289 289 289 289 290 290 290 289 287 286 285 283 282 281 280 279 278 276 274 273 271 270 269 267 266 264 262 259 257 255 252 249 246 243 243 247 250 255 259 261 261 261 259 253 251 253 253 252 249 245 242 239 237 231 224 226 226 212 206 208 207 208 214 213 208 202 204 207 186 169 188 196 183 177 178 180 178 176 180 185 184 183 182 174
290 291 290 290 290 291 290 289 288 287 286 285 283 283 282 280 279 278 276 274 272 272 270 268 267 265 265 264 262 259 256 253 250 245 241 239 242 247 253 257 262 264 265 265 262 255 252 252 252 250 247 245 242 237 233 227 226 229 219 205 204 206 209 214 216 212 203 202 206 187 170 193 199 185 179 180 181 177 175 180 183 181 182 179 174
292 291 291 291 290 290 289 288 288 287 287 287 285 285 284 283 282 280 278 276 273 271 271 269 267 265 264 264 263 261 258 255 251 246 239 236 236 242 250 255 260 264 264 266 267 263 257 253 253 252 248 245 243 240 237 232 228 228 223 212 208 207 205 207 214 215 206 202 203 191 181 196 196 186 180 178 180 180 178 182 183 180 183 181 173
292 291 290 291 290 290 290 290 290 290 289 288 287 287 285 283 282 280 278 277 275 273 271 269 267 265 263 262 262 261 260 257 255 249 239 233 232 235 243 250 255 259 261 262 264 266 264 259 255 254 250 245 243 240 236 233 231 230 225 216 212 210 207 206 209 211 208 205 202 195 193 195 190 185 183 180 179 178 177 184 186 184 186 185 176
292 292 292 292 293 293 293 292 292 291 290 290 288 287 285 283 282 281 278 277 277 275 272 269 268 266 264 263 261 259 258 256 255 251 241 232 230 230 235 244 250 254 258 260 261 263 264 262 258 255 252 248 244 241 235 230 228 229 224 217 214 214 212 209 207 207 207 205 203 201 197 191 191 192 189 183 179 177 178 184 186 186 189 189 181
294 294 295 295 295 296 295 293 292 292 291 290 288 286 285 284 283 281 279 279 277 274 273 270 268 266 264 264 262 260 258 255 252 249 241 232 229 228 231 238 245 249 254 256 257 258 259 260 259 255 254 251 244 238 235 229 225 224 222 218 217 215 214 212 212 213 214 209 205 204 198 193 195 194 187 183 181 182 183 183 185 187 190 191 183
297 297 297 297 297 296 295 294 293 292 290 289 288 287 286 285 282 280 279 277 274 272 270 267 265 264 263 262 261 260 258 254 250 246 240 232 230 229 230 234 240 245 250 253 253 254 254 254 256 254 252 252 246 236 231 227 222 220 220 221 221 218 214 214 214 214 217 215 207 203 200 196 194 187 182 183 186 185 183 184 186 184 184 189 181
297 297 298 297 297 296 295 295 294 293 292 291 289 288 287 285 282 281 279 276 273 269 266 263 261 261 260 260 260 259 257 254 249 244 238 231 228 227 227 231 236 240 245 249 250 250 250 249 250 250 249 249 247 239 233 229 222 217 215 216 218 218 215 215 215 212 212 214 212 207 201 194 189 184 183 184 183 178 175 180 183 177 176 187 184
297 297 296 296 297 297 296 296 295 294 293 292 290 289 288 286 284 282 278 275 272 269 266 265 263 259 259 260 260 258 255 253 248 243 238 230 224 223 225 230 234 237 241 245 247 246 245 244 244 244 244 245 244 239 235 232 225 217 212 212 215 216 215 214 214 212 209 210 212 208 198 190 189 188 186 183 179 173 169 173 179 177 178 186 185
296 297 297 297 298 297 296 296 295 293 293 293 292 290 288 287 285 282 281 282 282 280 277 275 271 264 262 263 262 258 256 254 248 242 238 229 221 221 227 231 233 237 238 241 243 243 241 241 240 239 240 241 240 236 233 229 224 217 212 211 210 211 210 207 207 209 210 210 209 205 195 191 191 192 191 187 183 178 175 178 182 181 185 191 183
297 297 297 297 297 296 295 294 293 294 294 295 295 294 292 292 292 291 291 292 291 287 283 280 276 271 268 267 264 259 257 255 249 243 238 229 220 221 229 233 233 235 236 236 239 240 238 238 236 234 236 238 237 234 232 227 222 219 215 211 208 207 206 201 201 206 208 209 208 206 199 192 191 194 195 193 190 188 184 184 185 185 187 190 182
298 297 296 296 296 296 296 295 296 297 299 299 300 300 298 298 296 293 291 290 287 283 279 277 275 272 271 269 265 260 257 254 249 244 238 229 221 220 228 233 232 231 232 233 236 236 234 235 233 230 230 233 232 233 233 228 224 223 219 213 209 206 201 197 197 202 204 204 205 205 200 194 192 193 193 191 191 192 191 189 189 188 189 190 185
297 295 295 295 296 297 298 297 297 299 301 303 303 301 299 298 296 294 292 289 284 281 277 274 271 269 268 266 263 260 256 254 251 245 239 232 223 219 225 232 232 228 227 230 232 233 231 231 230 227 226 228 228 230 232 231 227 225 220 215 211 206 198 193 195 197 198 200 201 200 197 193 190 190 190 188 189 193 195 196 192 189 190 192 189
296 296 295 295 297 299 298 295 296 300 305 307 305 303 302 303 301 299 298 293 287 283 281 278 274 271 268 265 262 259 255 251 249 245 241 237 228 220 221 228 229 226 225 227 229 230 230 229 227 224 224 224 225 227 230 230 228 225 220 215 212 208 198 192 191 191 192 197 200 199 195 190 185 186 188 189 191 194 197 198 194 190 194 197 195
297 297 297 297 298 298 296 294 299 306 310 308 304 303 306 308 306 303 301 297 293 288 284 280 275 271 270 265 261 260 255 249 245 242 239 238 233 223 220 223 225 225 224 225 226 227 227 227 225 223 222 221 222 226 229 228 227 225 219 214 211 207 198 189 186 187 188 191 196 198 196 190 186 186 189 190 193 194 197 199 194 189 192 199 200
300 299 299 299 299 297 295 297 303 309 309 307 305 304 306 309 307 305 303 298 291 286 282 281 277 272 272 271 267 265 258 250 244 237 232 233 233 225 219 219 220 222 224 225 226 225 224 224 223 222 221 220 223 229 230 226 225 223 219 215 211 204 194 183 180 182 183 185 191 197 196 192 190 189 189 190 193 194 197 199 196 191 194 201 202
302 302 302 299 297 296 295 298 304 308 309 309 308 303 304 309 308 306 303 297 291 290 287 286 282 275 273 273 271 268 260 249 242 235 227 227 227 222 218 218 218 218 221 225 225 223 223 223 222 222 222 223 225 228 228 225 225 222 216 213 208 197 187 180 178 179 179 182 189 193 192 192 191 186 181 183 186 188 188 190 191 191 190 191 192
306 306 304 299 297 295 295 298 305 309 309 312 311 306 307 311 309 305 304 299 296 294 290 285 283 278 273 271 269 265 255 241 235 230 221 217 219 217 215 217 218 217 219 223 224 223 224 225 224 222 224 226 226 226 225 224 223 218 212 208 203 193 186 181 178 178 179 181 185 187 188 190 189 179 176 178 179 182 187 188 189 190 183 169 162
310 309 304 299 298 296 296 300 306 309 310 313 313 309 308 311 311 308 306 304 301 298 295 293 292 283 271 267 266 260 246 230 223 219 212 207 209 210 210 213 215 215 217 221 224 223 224 226 226 225 227 230 229 226 224 222 217 211 205 202 196 189 186 183 180 179 180 181 183 185 185 186 180 171 174 178 177 182 189 191 189 190 187 174 160
311 308 302 299 298 298 299 303 310 314 315 316 312 305 304 308 309 309 309 309 307 305 303 302 302 297 285 275 267 252 234 220 212 209 204 199 200 202 203 205 207 209 212 215 218 219 221 225 227 229 232 231 225 220 217 215 210 204 200 197 191 187 186 185 182 179 178 179 180 180 178 177 173 171 175 178 177 180 186 188 186 185 184 178 169
309 305 302 300 301 304 305 308 314 320 323 321 312 304 303 305 307 310 315 318 317 314 312 310 309 307 301 289 274 242 216 211 206 200 196 193 193 194 195 197 200 203 206 207 208 211 216 220 222 226 229 223 213 206 204 204 202 197 194 192 188 184 183 182 180 177 177 178 175 173 172 171 171 172 173 172 173 176 179 181 179 177 177 177 175
306 303 304 305 307 310 309 311 319 325 325 321 313 308 308 309 311 317 321 322 323 323 321 318 316 316 311 297 270 227 203 202 199 195 192 189 187 187 188 189 191 195 197 198 199 204 210 213 216 220 221 213 203 196 195 193 190 187 186 186 185 182 179 179 179 177 175 175 171 169 170 171 170 170 169 168 170 173 176 175 169 167 171 176 174
303 303 307 309 310 312 311 314 323 326 324 321 316 312 313 316 323 331 330 326 327 329 329 329 330 333 336 326 251 207 202 198 191 188 188 185 183 184 185 185 187 190 189 188 193 202 205 206 211 215 215 211 203 196 191 186 180 181 184 184 182 178 175 176 176 173 170 170 168 167 169 170 169 168 168 168 168 171 173 173 169 170 175 178 173
301 303 309 311 313 314 314 319 326 327 326 324 319 316 320 325 332 337 335 333 334 336 337 340 345 353 4 18 117 185 200 195 182 180 181 179 178 180 181 180 183 187 184 182 190 201 202 201 207 208 209 211 205 195 189 183 178 179 181 179 173 170 171 173 172 169 167 167 166 168 170 170 169 168 167 165 165 167 169 170 170 173 178 180 175
301 304 309 314 317 317 318 325 330 329 328 325 320 323 334 341 339 336 335 337 341 344 347 353 0 9 19 34 68 130 160 162 161 165 170 171 171 174 174 174 178 181 179 180 191 200 199 201 207 205 203 203 194 183 180 179 174 171 173 172 166 162 166 170 168 165 167 168 167 169 171 170 169 167 163 163 165 166 167 168 168 171 176 177 173
302 304 309 316 318 317 321 329 330 328 328 325 323 333 347 351 346 339 334 335 340 344 351 0 10 19 25 35 51 73 99 124 137 146 153 156 158 160 160 164 172 177 178 183 195 201 200 205 208 203 196 190 181 174 172 170 166 165 169 172 167 161 162 164 163 162 166 169 169 168 168 168 167 164 161 163 166 165 165 167 168 170 172 171 170
305 307 312 320 320 318 323 329 328 329 329 326 329 344 355 355 352 350 343 335 333 339 349 358 10 23 30 35 44 57 70 83 102 123 138 144 147 149 146 145 155 166 175 187 199 202 204 205 201 191 182 175 170 167 164 161 161 164 166 166 162 157 155 157 159 161 164 167 168 167 166 165 164 163 162 163 164 164 166 170 170 172 175 173 171
309 309 317 326 324 322 325 328 329 331 330 329 339 353 359 358 358 359 354 344 340 345 354 358 7 22 32 35 41 51 60 66 72 82 97 113 121 121 115 107 105 102 100 121 156 166 171 171 168 163 158 154 151 148 148 149 152 154 152 149 147 147 150 155 157 159 162 164 164 164 163 162 162 163 164 161 159 163 169 171 172 176 179 173 167
311 312 321 328 328 326 327 329 332 333 333 340 354 3 3 1 3 4 2 355 351 354 1 2 5 15 25 28 35 47 56 60 62 64 68 78 85 85 81 78 79 74 64 58 77 101 110 118 127 130 131 131 130 131 132 133 133 135 136 136 136 138 142 145 148 150 152 154 156 158 159 159 161 162 159 155 156 163 168 169 171 177 178 167 162
315 316 326 333 334 332 331 332 335 338 341 352 6 10 7 5 5 6 5 2 358 360 5 7 7 8 12 16 26 42 52 55 55 53 53 58 63 66 68 69 69 67 61 53 57 74 85 90 98 106 111 115 119 122 122 122 122 124 125 126 127 130 133 135 138 140 140 138 142 148 150 150 153 156 155 152 153 155 156 157 160 165 164 161 162
322 320 334 343 343 339 337 336 338 342 349 359 9 13 11 9 8 8 7 5 4 5 10 12 11 10 13 19 27 37 44 47 46 44 45 47 49 53 58 61 60 60 59 54 53 62 72 77 83 89 94 100 107 112 115 115 115 116 117 116 116 117 121 124 126 128 129 128 130 135 136 136 138 143 146 146 144 142 141 145 152 157 157 159 161
331 328 337 346 348 346 343 342 345 350 356 2 11 15 13 11 10 9 7 7 9 10 13 17 18 18 22 29 37 41 40 37 35 37 40 41 42 46 51 53 53 54 54 52 51 56 64 70 75 79 82 87 94 100 105 107 108 108 108 108 105 104 107 111 112 114 117 117 117 120 123 128 130 129 127 128 130 130 129 132 138 140 139 139 141
338 336 338 347 355 356 351 350 354 359 1 7 15 16 12 11 14 12 9 10 12 12 15 20 23 24 28 36 46 49 46 40 37 38 38 38 40 44 48 50 50 50 51 50 51 54 61 66 70 73 75 77 83 91 96 99 101 101 100 100 99 98 97 100 103 105 106 107 107 109 112 117 121 120 115 114 119 122 121 117 116 116 118 125 131
345 345 347 354 2 4 0 356 360 6 10 13 17 16 13 13 17 17 15 15 16 17 18 20 24 27 32 39 47 51 50 47 44 43 40 38 38 41 45 48 48 47 47 50 52 55 59 63 66 70 71 71 74 83 89 91 94 96 95 94 94 93 91 91 94 96 99 102 105 106 106 107 110 113 114 114 115 116 115 112 109 108 108 113 118
352 353 358 4 7 9 6 2 3 11 16 18 18 17 17 17 20 22 23 22 21 21 22 24 27 30 34 40 47 50 49 46 45 44 41 39 39 40 43 47 49 49 49 51 54 56 59 61 62 65 68 68 69 73 78 82 86 90 90 88 87 87 87 88 89 93 97 99 102 105 105 103 102 103 105 106 105 104 106 107 104 100 98 98 97
2 5 9 14 16 15 13 9 10 14 18 21 24 23 21 21 22 24 26 26 25 26 28 29 31 33 36 39 44 46 45 44 44 43 41 41 40 40 43 47 50 52 52 53 56 59 61 62 62 64 66 67 68 69 72 75 79 83 86 85 83 82 81 82 84 89 94 95 96 99 101 100 98 98 97 98 99 98 99 100 97 90 89 93 92
12 15 20 23 22 21 18 15 16 21 24 26 29 27 24 25 28 28 29 28 28 30 33 34 34 36 38 39 40 41 43 44 44 42 42 42 43 45 47 50 53 54 54 55 58 61 61 62 63 64 64 66 68 70 71 73 75 78 82 84 83 81 81 83 85 91 96 96 96 99 100 99 98 98 96 96 98 96 91 90 91 88 83 84 88
19 23 29 31 28 26 25 22 24 29 33 34 33 31 28 28 30 32 33 33 33 34 36 36 36 39 40 40 40 41 41 42 43 44 45 47 48 50 52 54 55 57 57 58 61 63 63 63 64 64 64 65 68 70 71 74 77 79 81 82 82 83 86 89 89 92 97 99 99 101 103 102 101 100 101 101 99 95 90 88 89 88 85 83 86
28 30 34 35 34 32 31 30 32 36 39 40 40 39 37 35 34 35 36 37 39 40 41 40 41 43 43 42 42 42 41 40 42 46 49 51 51 52 53 55 56 57 58 60 62 64 65 65 65 66 67 68 70 72 73 75 78 81 83 85 87 88 90 91 91 92 96 98 98 98 99 97 93 93 96 98 97 94 92 89 87 85 85 85 85
33 35 36 38 39 38 35 34 36 39 41 42 43 43 40 37 36 36 38 40 43 44 45 45 45 45 44 44 43 42 43 43 44 45 48 51 52 53 55 56 57 58 59 60 62 63 64 65 65 67 69 70 72 74 75 75 77 79 81 85 90 94 96 96 96 97 99 100 100 100 100 97 93 92 92 91 91 90 88 87 87 85 84 85 85
37 39 40 40 40 40 39 37 38 39 40 41 44 44 42 39 38 40 42 45 47 48 48 49 48 47 46 44 40 38 41 44 44 44 46 47 50 54 57 59 60 61 60 61 62 64 65 66 66 68 70 72 73 75 76 76 76 78 80 84 90 94 96 96 95 96 97 97 96 96 95 93 91 90 88 87 87 88 88 88 88 88 86 85 84
43 44 45 44 44 44 42 41 42 41 39 40 42 42 39 38 39 42 45 48 49 48 46 47 48 48 47 43 38 37 40 42 43 44 45 46 50 55 59 61 62 63 63 64 65 67 69 70 70 71 72 74 74 75 76 75 75 76 79 84 90 94 96 97 96 95 95 96 95 93 92 89 87 87 89 89 88 87 88 88 89 88 87 86 82
48 48 48 48 48 48 46 46 47 45 43 43 44 43 41 40 42 45 49 50 49 46 43 43 46 47 46 43 40 40 42 43 44 44 44 46 51 56 59 60 62 64 65 65 66 68 70 72 73 73 74 74 74 74 75 75 76 79 83 87 90 93 95 97 96 95 95 95 95 94 92 89 86 87 90 93 93 90 89 89 88 87 87 86 84